Location: Arrington
(35.8681°N, 86.7092°W)
Time: 03:11:56
(UTC+00:00)

Starlink Launch 2 trailer - Pass Details

Date: 23 November 2019
Orbit: 279 x 281 km, 53.0° (Epoch: 13 November)

Event Time Altitude Azimuth Distance (km) Brightness Sun altitude
Exits shadow 10:50:07 32° 98° (E) 502 4.1 -20.2°
Drops below altitude 10° 10:51:53 10° 61° (ENE) 1,106 5.9 -19.9°
Sets 10:53:51 0° 53° (NE) 1,923 7.0 -19.5°
